Terminal Aerodrome Forecast
Issued by NWS

Home | Current Version | Previous Version | Text Only | Print | Product List | Glossary On
Versions: 1 2 3 4 5 6 7 8 9 10 11 12 13 14 15 16 17
000
FTUS43 KMQT 211700
TAFIWD
TAF
KIWD 211733Z 2118/2218 18010KT P6SM OVC012
     FM212000 17010G20KT 3SM -SN OVC010
     FM220600 16012KT P6SM OVC015
      AMD LTD TO CLD VIS AND WIND=

USA.gov is the U.S. government's official web portal to all federal, state and local government web resources and services.